GTALE EGBM-EGBM

Flight info

Callsign GTALE
Flight time N/A
Altitude 5500
Route EGBM DCT EGBM
Aircraft C152/L-SFG/C

Departure

Time 2026-05-05 15:05
Airport Tatenhill Airfield (EGBM)

Arrival

Time N/A
Airport Tatenhill Airfield (EGBM)
Time Latitude Longitude Altitude Speed Heading
2026-05-05 14:59 52.81615 -1.75675 446 ft 0 kts 206°
2026-05-05 15:00 52.81610 -1.75673 446 ft 2 kts 102°
2026-05-05 15:00 52.81614 -1.75657 435 ft 2 kts 56°
2026-05-05 15:01 52.81610 -1.75600 445 ft 6 kts 102°
2026-05-05 15:01 52.81613 -1.75582 444 ft 2 kts 357°
2026-05-05 15:01 52.81614 -1.75585 444 ft 0 kts 228°
2026-05-05 15:04 52.81592 -1.75579 445 ft 9 kts 161°
2026-05-05 15:04 52.81550 -1.75681 449 ft 32 kts 256°
2026-05-05 15:05 52.81281 -1.77141 753 ft 77 kts 261°
2026-05-05 15:05 52.81060 -1.77991 996 ft 85 kts 234°
2026-05-05 15:05 52.80467 -1.78346 1190 ft 97 kts 191°
2026-05-05 15:06 52.79772 -1.78519 1272 ft 104 kts 188°
2026-05-05 15:06 52.79058 -1.78619 1275 ft 102 kts 186°
2026-05-05 15:06 52.78523 -1.78106 1352 ft 91 kts 97°
2026-05-05 15:06 52.78540 -1.77077 1300 ft 92 kts 72°
2026-05-05 15:07 52.78725 -1.76051 1174 ft 93 kts 65°
2026-05-05 15:07 52.78972 -1.75117 1183 ft 88 kts 57°
2026-05-05 15:07 52.79237 -1.74232 1184 ft 84 kts 58°
2026-05-05 15:07 52.79451 -1.73345 1230 ft 82 kts 61°
2026-05-05 15:08 52.79632 -1.72472 1268 ft 81 kts 62°
2026-05-05 15:08 52.79851 -1.71649 1362 ft 77 kts 58°
2026-05-05 15:08 52.80097 -1.70862 1405 ft 78 kts 54°
2026-05-05 15:08 52.80385 -1.70108 1479 ft 77 kts 53°